Regional Weather Roundup
Issued by NWS

Home | Current Version | Previous Version | Text Only | Print | Product List | Glossary Off
Versions: 1 2 3 4 5 6 7 8 9 10 11 12 13 14 15 16 17 18 19 20 21 22 23 24 25 26 27 28 29 30 31 32 33 34 35 36 37 38 39 40 41 42 43 44 45 46 47 48 49 50

000
ASUS43 KLOT 211600
RWRIL

ILLINOIS REGIONAL WEATHER ROUNDUP
NATIONAL WEATHER SERVICE CHICAGO/ROMEOVILLE IL
1100 AM CDT THU AUG 21 2014

NOTE: "FAIR" INDICATES FEW OR NO CLOUDS BELOW 12,000 FEET WITH NO
SIGNIFICANT WEATHER AND/OR OBSTRUCTIONS TO VISIBILITY.

* THESE STATIONS ARE NOT UNDER NWS QUALITY CONTROL. THEY ALSO MAY NOT
  REPORT WEATHER SUCH AS PRECIPITATION OR FOG.

ILZ001-002-007-009-015-016-024-211700-
NORTHWEST ILLINOIS

CITY           SKY/WX    TMP DP  RH WIND       PRES   REMARKS
MOLINE         CLOUDY    79  70  74 CALM      29.93R HX  82
STERLING*      CLOUDY    73  70  88 S7        29.93F
$$

ILZ003-004-008-010-011-017-018-211700-
NORTH CENTRAL ILLINOIS

CITY           SKY/WX    TMP DP  RH WIND       PRES   REMARKS
ROCKFORD       CLOUDY    75  71  87 S8        29.96R THUNDER
$$

ILZ005-006-012>014-019>023-211700-
NORTHEAST ILLINOIS

CITY           SKY/WX    TMP DP  RH WIND       PRES   REMARKS
CHICAGO-OHARE  CLOUDY    75  68  78 S9        29.94R
CHICAGO-MIDWAY CLOUDY    76  72  87 S9        29.93F
AURORA         CLOUDY    75  71  87 S10       29.95S
WAUKEGAN       CLOUDY    74  70  87 S6        29.94R
DUPAGE AIRPORT CLOUDY    75  72  90 S8        29.94S
WHEELING       CLOUDY    75  71  87 S8        29.95S
NORTHERLY ISL    N/A     74  70  87 S9          N/A
$$

LMZ740>746-211700-
SOUTHERN LAKE MICHIGAN

STATION/POSITION SKY/WX   TEMP    WIND        PRES    VSBY  WAVE
                          AIR SEA DIR/SP/G                  HT/PER
                          (F)     (DEG/KT/KT) (MB)    (MI)  (FT/S)
WAUKEGAN HARBOR            73     180/  8/ 11   N/A
HARRISON CRIB              71     170/ 14/ 17   N/A
BURNHAM HARBOR             74     180/  4/  9   N/A
CALUMET HARBOR             73     180/  8/ 11 1012.8F
BURNS HARBOR               73     140/  2/  5   N/A
MICHIGAN CITY              71     170/  2/  3   N/A
MICHIGAN CITY 6N           72 70  160/  8/  8   N/A           1
ST. JOSEPH                 71 71  110/  6/  8   N/A           2/ 3
$$

ILZ025>027-034>036-040-047-049-050-058-095>099-211700-
WEST-CENTRAL ILLINOIS

CITY           SKY/WX    TMP DP  RH WIND       PRES   REMARKS
QUINCY         SUNNY     84  72  67 SW13      29.95S HX  89
MACOMB*        PTSUNNY   79  72  78 SW13      29.96S HX  83
$$

ILZ028>032-037-038-041>044-048-051>054-059>061-211700-
CENTRAL ILLINOIS

CITY           SKY/WX    TMP DP  RH WIND       PRES   REMARKS
DECATUR        PTSUNNY   83  72  69 SW12G22   30.01R HX  88
PEORIA         PTSUNNY   83  71  67 SW9       29.96S HX  87
SPRINGFIELD    PTSUNNY   82  72  71 SW10      29.99S HX  87
TAYLORVILLE    NOT AVBL
$$

ILZ033-039-045-046-055>057-062-063-211700-
EAST-CENTRAL ILLINOIS

CITY           SKY/WX    TMP DP  RH WIND       PRES   REMARKS
CHAMPAIGN      PTSUNNY   82  74  76 SW9       30.02R HX  88
MATTOON        PTSUNNY   82  72  71 W9        30.03R HX  87
$$

ILZ079-100>102-211700-
SOUTHWEST ILLINOIS

CITY           SKY/WX    TMP DP  RH WIND       PRES   REMARKS
BELLEVILLE     MOSUNNY   87  76  71 SE1       30.02R HX  97
CAHOKIA*       MOSUNNY   86  74  67 MISG      30.02R HX  94
$$

ILZ064>066-069>071-074>076-080>082-084>086-088>090-092>094-211700-
SOUTH-CENTRAL ILLINOIS

CITY           SKY/WX    TMP DP  RH WIND       PRES   REMARKS
CARBONDALE     MOSUNNY   86  74  67 SW9       30.05S HX  94
MARION         MOSUNNY   88  75  66 SW9       30.06F HX  97
MT. VERNON     MOSUNNY   84  73  70 SW10      30.06R HX  91
SALEM*         MOSUNNY   86  77  74 SW12      30.05S HX  97
$$

ILZ067-068-072-073-078-083-087-091-211700-
SOUTHEAST ILLINOIS

CITY           SKY/WX    TMP DP  RH WIND       PRES   REMARKS
LAWRENCEVILLE  PTSUNNY   84  75  74 W12       30.05S HX  92
HARRISBURG*    SUNNY     86  75  68 SW10      30.08S HX  94
ROBINSON*      PTSUNNY   84  76  78 W8        30.05R HX  93
$$

ABBREVIATIONS USED IN REMARKS
   TC - TEMPERATURE IN CELSIUS
  WCI - WIND CHILL INDEX
   HX - HEAT INDEX
  VSB - VISIBILITY
$$



USA.gov is the U.S. government's official web portal to all federal, state and local government web resources and services.